Location: Doverdale
(52.2833°N, 2.2000°W)
Time: 03:16:46
(UTC+00:00)

NOSS 3-4 (A) - Pass Details

Date: 29 October 2020
Orbit: 885 x 1327 km, 63.4° (Epoch: 06 November)

Event Time Altitude Azimuth Distance (km) Brightness Sun altitude
Rises 19:41:20 0° 313° (NW) 3,789 7.5 -27.4°
Reaches altitude 10° 19:43:52 10° 311° (NW) 2,893 6.7 -27.8°
Maximum altitude 19:50:39 62° 233° (SW) 1,279 4.1 -28.8°
Enters shadow 19:53:07 42° 173° (S) 1,623 4.4 -29.2°
